Meridian, MS

7:18 AM CST on December 06, 2019 (GMT -0600)
Key

Weather History for KMEI - October, 2019

Change the Weather History Date:

Thursday, October 31, 2019

  Actual Average Record
Temperature  
Mean Temperature 56 °F 59 °F  
Max Temperature 75 °F 73 °F 91 °F (2016)
Min Temperature 37 °F 46 °F 28 °F (1993)
Degree Days  
Heating Degree Days 9 7  
Month to date heating degree days 70 117  
Since 1 July heating degree days 70 124  
Cooling Degree Days 0 1  
Month to date cooling degree days 214 90  
Year to date cooling degree days 2846 2013  
Growing Degree Days 6 (Base 50)    
Moisture  
Dew Point 52 °F    
Average Humidity 83    
Maximum Humidity 93    
Minimum Humidity 59    
Precipitation  
Precipitation 0.63 in 0.13 in 2.38 in (1979)
Month to date precipitation 11.67 3.76  
Year to date precipitation 54.85 46.15  
Sea Level Pressure  
Sea Level Pressure 30.05 in    
Wind  
Wind Speed 12 mph ()    
Max Wind Speed 31 mph    
Max Gust Speed 40 mph    
Visibility 7.9 miles    
Events Rain , Thunderstorm    
T = Trace of Precipitation, MM = Missing Value Source: Averaged Metar Reports

Daily Weather History Graph

Daily Weather History Graph

Search for Another Location

Airport or City:

Astronomy

Oct. 31, 2019 Rise Set
Actual Time 7:11 AM CDT 6:05 PM CDT
Civil Twilight 6:45 AM CDT 6:30 PM CDT
Nautical Twilight 6:16 AM CDT 6:59 PM CDT
Astronomical Twilight 5:48 AM CDT 7:28 PM CDT
Moon 10:50 AM CDT (10/31) 9:11 PM CDT (10/31)
Length of Visible Light 11h 45m
Length of Day
10h 54m
Waxing Crescent, 16% of the Moon is Illuminated
Oct 31
Waxing Crescent
Nov 4
First Quarter
Nov 12
Full
Nov 19
Last Quarter
Nov 26
New

Hourly Weather History & Observations

Time (CDT) Temp. Windchill Dew Point Humidity Pressure Visibility Wind Dir Wind Speed Gust Speed Precip Events Conditions
12:10 AM 75.0 °F - 72.0 °F 90% 29.89 in 10.0 mi South 11.5 mph - N/A Thunderstorm Overcast
12:17 AM 75.0 °F - 72.0 °F 90% 29.88 in 9.0 mi SSE 10.4 mph - 0.00 in Rain , Thunderstorm Light Thunderstorms and Rain
12:24 AM 75.0 °F - 72.0 °F 90% 29.87 in 10.0 mi SSE 12.7 mph - 0.00 in Rain , Thunderstorm Light Thunderstorms and Rain
12:35 AM 75.0 °F - 72.0 °F 90% 29.87 in 10.0 mi South 15.0 mph - 0.00 in Thunderstorm Overcast
12:47 AM 75.0 °F - 72.0 °F 90% 29.88 in 9.0 mi SSW 10.4 mph - 0.00 in Thunderstorm Overcast
12:58 AM 75.0 °F - 72.0 °F 90% 29.87 in 10.0 mi WSW 6.9 mph - 0.00 in   Overcast
1:58 AM 75.0 °F - 72.0 °F 90% 29.86 in 10.0 mi South 10.4 mph - 0.05 in Rain Light Rain
2:58 AM 75.0 °F - 72.0 °F 90% 29.84 in 10.0 mi South 13.8 mph - 0.02 in Rain Light Rain
3:33 AM 75.0 °F - 71.1 °F 87% 29.85 in 10.0 mi SSW 13.8 mph - 0.01 in   Overcast
3:41 AM 75.0 °F - 71.1 °F 87% 29.85 in 10.0 mi SSW 9.2 mph - 0.01 in   Overcast
3:48 AM 75.0 °F - 71.1 °F 87% 29.85 in 10.0 mi SSW 9.2 mph - 0.01 in   Overcast
3:58 AM 75.0 °F - 71.1 °F 87% 29.84 in 10.0 mi SSW 11.5 mph - 0.01 in   Overcast
4:34 AM 73.9 °F - 71.1 °F 91% 29.85 in 1.8 mi South 12.7 mph - 0.11 in Rain Heavy Rain
4:38 AM 73.9 °F - 71.1 °F 91% 29.87 in 1.5 mi West 17.3 mph 26.5 mph 0.22 in Rain Heavy Rain
4:42 AM 68.0 °F - 64.9 °F 90% 29.89 in 2.0 mi WNW 26.5 mph 40.3 mph 0.27 in Rain Heavy Rain
4:46 AM 64.0 °F - 60.1 °F 87% 29.90 in 3.0 mi WNW 18.4 mph 40.3 mph 0.27 in Rain Light Rain
4:55 AM 62.6 °F - 59.0 °F 88% 29.92 in 5.0 mi WNW 18.4 mph 32.2 mph 0.27 in Rain Rain
4:58 AM 61.0 °F - 57.9 °F 90% 29.92 in 5.0 mi WNW 20.7 mph 32.2 mph 0.27 in Rain Light Rain
5:28 AM 57.9 °F - 54.0 °F 87% 29.96 in 10.0 mi NW 15.0 mph 24.2 mph 0.00 in   Overcast
5:43 AM 57.0 °F - 53.1 °F 87% 29.98 in 8.0 mi NW 13.8 mph 20.7 mph 0.00 in Rain Light Rain
5:58 AM 55.0 °F - 51.1 °F 86% 29.98 in 9.0 mi NW 17.3 mph 23.0 mph 0.00 in Rain Light Rain
6:05 AM 55.0 °F - 51.1 °F 86% 29.99 in 10.0 mi NW 15.0 mph 23.0 mph 0.00 in Rain Light Rain
6:29 AM 54.0 °F - 50.0 °F 86% 30.02 in 10.0 mi NW 15.0 mph 24.2 mph 0.01 in   Overcast
6:36 AM 54.0 °F - 50.0 °F 86% 30.02 in 10.0 mi NW 17.3 mph 26.5 mph 0.01 in Rain Light Rain
6:58 AM 52.0 °F - 48.0 °F 86% 30.03 in 10.0 mi NW 11.5 mph 25.3 mph 0.01 in Rain Light Rain
7:18 AM 52.0 °F - 48.0 °F 86% 30.03 in 10.0 mi NW 9.2 mph - 0.01 in Rain Light Rain
7:58 AM 51.1 °F - 48.9 °F 92% 30.06 in 2.8 mi WNW 9.2 mph - 0.08 in Rain Light Rain
8:05 AM 51.1 °F - 48.0 °F 89% 30.05 in 2.5 mi NNW 10.4 mph - 0.03 in Rain Light Rain
8:58 AM 48.9 °F - 46.0 °F 90% 30.09 in 2.5 mi WNW 10.4 mph - 0.18 in Rain Light Rain
9:05 AM 48.9 °F - 46.0 °F 90% 30.10 in 9.0 mi WNW 11.5 mph - 0.00 in Rain Light Rain
9:46 AM 48.9 °F - 45.0 °F 86% 30.13 in 2.0 mi West 11.5 mph - 0.01 in Rain Light Rain
9:58 AM 48.0 °F - 44.1 °F 86% 30.13 in 2.0 mi WNW 12.7 mph - 0.01 in Rain Light Rain
10:47 AM 46.9 °F - 43.0 °F 86% 30.17 in 2.0 mi WNW 12.7 mph - 0.00 in Rain Light Rain
10:58 AM 46.9 °F - 42.1 °F 83% 30.18 in 2.0 mi WNW 17.3 mph 24.2 mph 0.00 in Rain Light Rain
11:05 AM 46.9 °F - 42.1 °F 83% 30.19 in 10.0 mi WNW 13.8 mph 24.2 mph 0.00 in Rain Light Rain
11:39 AM 46.9 °F - 39.9 °F 77% 30.19 in 10.0 mi NW 13.8 mph 25.3 mph 0.00 in   Mostly Cloudy
11:58 AM 46.9 °F - 39.0 °F 74% 30.19 in 10.0 mi NW 12.7 mph - 0.00 in   Overcast
12:58 PM 46.9 °F - 37.9 °F 71% 30.21 in 10.0 mi WNW 10.4 mph 21.9 mph N/A   Overcast
1:58 PM 48.0 °F - 37.0 °F 66% 30.21 in 10.0 mi NW 15.0 mph - N/A   Overcast
2:40 PM 48.0 °F - 36.0 °F 63% 30.23 in 10.0 mi NW 15.0 mph 26.5 mph N/A   Overcast
2:58 PM 48.0 °F - 35.1 °F 61% 30.22 in 10.0 mi NW 20.7 mph 27.6 mph N/A   Overcast
3:54 PM 48.2 °F - 35.6 °F 62% 30.24 in 10.0 mi North 17.3 mph - N/A   Overcast
3:58 PM 48.0 °F - 35.1 °F 61% 30.24 in 10.0 mi North 15.0 mph - N/A   Mostly Cloudy
4:58 PM 46.9 °F - 33.1 °F 59% 30.25 in 10.0 mi North 15.0 mph - N/A   Partly Cloudy
5:58 PM 44.1 °F 40.1 °F 33.1 °F 65% 30.27 in 10.0 mi NNW 6.9 mph - N/A   Clear
7:58 PM 41.0 °F 35.8 °F 34.0 °F 76% 30.32 in 10.0 mi North 8.1 mph - N/A   Clear
8:58 PM 39.9 °F 35.1 °F 34.0 °F 79% 30.33 in 10.0 mi North 6.9 mph - N/A   Clear
10:58 PM 37.9 °F - 34.0 °F 86% 30.35 in 10.0 mi Calm Calm - N/A   Clear
11:58 PM 37.9 °F 32.7 °F 33.1 °F 83% 30.35 in 10.0 mi North 6.9 mph - N/A   Clear